Location: Capannuccia
(43.7000°N, 11.3000°E)
Time: 12:32:07
(UTC+00:00)

Resurs 1-4 Rocket - Pass Details

Date: 07 June 2020
Orbit: 800 x 813 km, 98.6° (Epoch: 15 July)

Event Time Altitude Azimuth Distance (km) Brightness Sun altitude
Rises 01:34:26 0° 7° (N) 3,337 6.5 -16.1°
Reaches altitude 10° 01:36:51 10° 1° (N) 2,404 5.4 -15.9°
Maximum altitude 01:41:52 44° 291° (WNW) 1,118 2.7 -15.3°
Enters shadow 01:44:56 22° 231° (SW) 1,716 3.2 -15.0°
